Location: Les Jeannots
(43.2262°N, 5.5774°E)
Time: 19:00:21
(UTC+00:00)

Cosmos 2181 Rocket - Pass Details

Date: 05 July 2020
Orbit: 951 x 1016 km, 82.9° (Epoch: 12 August)

Event Time Altitude Azimuth Distance (km) Brightness Sun altitude
Rises 21:21:21 0° 351° (N) 3,731 8.3 -16.6°
Reaches altitude 10° 21:23:55 10° 351° (N) 2,769 7.4 -16.8°
Maximum altitude 21:30:16 84° 264° (W) 993 4.0 -17.4°
Enters shadow 21:34:17 24° 178° (S) 1,908 5.0 -17.8°
